[[{"header":{"parameterUnit":"m.s-1","parameterCategory":1,"la1":30.2991,"la2":30.254,"lo1":-89.0895,"lo2":-89.0444,"dy":0.0017,"dx":0.0017,"nx":28,"ny":28,"refTime":"2023-11-03T03:00:00:Z","depth":0,"parameterNumber":2,"parameterNumberName":"U-component_of_WINDS"},"data":[0,0,0,0,0,0,0,0,0,0,0,0,0,0,0,0,0,0,0,0,0,0,0,0,0,0,0,0,0,0,0,0,0,0,0,0,0,0,0,0,0,0,0,0,0,0,0,0,0,0,0,0,0,0,0,0,0,0,-1.1961,-1.1962,0,-1.204,-1.2041,-1.2042,-1.2034,-1.2033,-1.2032,-1.2031,-1.2112,-1.2115,-1.2118,0,0,0,0,0,0,0,0,0,0,0,0,0,-1.1805,-1.1808,-1.1961,-1.1962,-1.1963,-1.204,-1.2041,-1.2042,-1.2034,-1.2033,-1.2031,-1.203,-1.2111,-1.2115,-1.2119,0,0,0,0,0,0,0,0,0,0,0,0,0,-1.1877,-1.1809,-1.1961,-1.1969,-1.197,-1.2039,-1.2041,-1.2042,-1.2035,-1.2033,-1.2031,-1.2029,-1.2109,-1.2114,-1.2119,-1.2186,0,0,-1.2134,-1.2136,0,0,0,0,0,0,0,0,-1.1873,-1.1883,-1.1966,-1.1968,-1.197,-1.2025,-1.2016,-1.209,-1.2035,-1.201,-1.2031,-1.2028,-1.2085,-1.2091,-1.211,-1.219,-1.2193,-1.2135,-1.2138,-1.214,-1.2141,0,0,0,0,0,0,0,-1.1868,-1.188,-1.1992,-1.1968,-1.197,-1.1968,-1.1977,-1.203,-1.2057,-1.2012,-1.2012,-1.2021,-1.2085,-1.2105,-1.2112,-1.2195,-1.2135,-1.2139,-1.2142,-1.2144,-1.2336,-1.2338,0,0,0,0,0,0,-1.1861,-1.1876,-1.199,-1.1995,-1.1916,-1.1973,-1.1982,-1.2009,-1.2056,-1.2061,-1.2023,-1.2021,-1.2098,-1.2106,-1.2115,-1.2199,-1.214,-1.2144,-1.2147,-1.2334,-1.2336,-1.2339,0,0,0,0,0,0,-1.1858,-1.1872,-1.1987,-1.1935,-1.195,-1.1977,-1.2008,-1.2012,-1.2032,-1.2064,-1.2069,-1.2039,-1.2097,-1.2108,-1.2169,-1.2201,-1.2147,-1.2151,-1.2331,-1.2334,-1.2337,-1.2365,0,0,0,0,0,0,-1.1854,-1.1871,-1.1896,-1.1936,-1.1952,-1.2039,-1.201,-1.2015,-1.2041,-1.2039,-1.208,-1.2085,-1.2096,-1.2162,-1.2174,-1.2207,-1.2155,-1.2328,-1.2333,-1.2336,-1.2362,-1.2369,-1.2376,0,0,0,0,0,-1.1848,-1.19,-1.1897,-1.1911,-1.1985,-1.2041,-1.2051,-1.2062,-1.2043,-1.207,-1.209,-1.2084,-1.2195,-1.2168,-1.2182,-1.2217,-1.2326,-1.2331,-1.2336,-1.2359,-1.2368,-1.2375,0,0,0,0,0,0,-1.1864,-1.1906,-1.1903,-1.1969,-1.2002,-1.204,-1.2073,-1.2071,-1.2109,-1.2106,-1.2118,-1.2128,-1.219,-1.2209,-1.2178,-1.2285,-1.2258,-1.2266,-1.2271,-1.228,-1.2287,-1.2282,-1.2159,0,0,0,0,0,-1.1875,-1.1917,-1.1951,-1.2007,-1.2023,-1.2045,-1.207,-1.2076,-1.211,-1.2124,-1.2149,-1.2182,-1.2225,-1.2253,-1.2294,-1.2364,-1.2374,-1.2395,-1.2401,-1.2407,-1.2414,-1.2455,-1.2466,-1.2354,-1.2354,-1.2354,0,0,-1.1899,-1.1927,-1.1952,-1.2011,-1.2036,-1.208,-1.2057,-1.2104,-1.2137,-1.2131,-1.2191,-1.221,-1.2249,-1.2315,-1.2345,-1.2333,-1.2447,-1.2413,-1.2417,-1.2422,-1.2461,-1.2472,-1.2481,-1.2357,-1.2357,-1.2356,0,0,-1.1965,-1.1989,-1.204,-1.2066,-1.2105,-1.212,-1.2132,-1.217,-1.2183,-1.2243,-1.224,-1.228,-1.2352,-1.2381,-1.2404,-1.2482,-1.2478,-1.2494,-1.2531,-1.2571,-1.258,-1.2588,-1.2618,-1.2628,-1.2501,-1.2501,-1.2501,0,-1.199,-1.2056,-1.2066,-1.2114,-1.214,-1.2137,-1.2188,-1.2213,-1.2264,-1.2283,-1.2267,-1.236,-1.2385,-1.2459,-1.2478,-1.2497,-1.2512,-1.2491,-1.2577,-1.2586,-1.2593,-1.2622,-1.2633,-1.2503,-1.2503,-1.2503,-1.2502,0,-1.2086,-1.2131,-1.2167,-1.2217,-1.2247,-1.2296,-1.2314,-1.2344,-1.2347,-1.2363,-1.2425,-1.2455,-1.2503,-1.2521,-1.2524,-1.2596,-1.2587,-1.2574,-1.2548,-1.2606,-1.2633,-1.2644,-1.2506,-1.2505,-1.2505,-1.2504,0,0,-1.2166,-1.222,-1.2233,-1.2257,-1.23,-1.2336,-1.2385,-1.2432,-1.2458,-1.2493,-1.2536,-1.2598,-1.2587,-1.2614,-1.262,-1.2655,-1.2717,-1.2638,-1.2639,-1.2654,-1.2801,-1.2813,-1.2825,-1.2714,-1.2716,-1.2718,-1.2799,0,-1.2238,-1.2327,-1.2337,-1.2416,-1.246,-1.2457,-1.25,-1.2532,-1.2548,-1.2588,-1.2606,-1.2651,-1.2631,-1.2648,-1.2681,-1.2703,-1.2748,-1.2696,-1.2757,-1.2759,-1.275,-1.2839,-1.2851,-1.2927,-1.281,-1.2812,-1.2813,0,-1.2336,-1.2374,-1.2458,-1.2496,-1.2515,-1.2554,-1.2599,-1.2636,-1.2672,-1.2681,-1.2712,-1.2714,-1.2766,-1.2736,-1.2809,-1.2774,-1.2799,-1.2813,-1.2817,-1.2825,-1.2791,-1.2853,-1.2951,-1.2963,-1.2829,-1.2828,-1.2827,0,-1.2389,-1.2461,-1.2521,-1.2541,-1.2587,-1.2615,-1.2635,-1.2669,-1.2697,-1.2736,-1.2755,-1.2798,-1.2824,-1.2858,-1.2872,-1.2848,-1.2946,-1.2916,-1.2957,-1.2957,-1.298,-1.2979,-1.3086,-1.2991,-1.2991,-1.2991,-1.2991,0,-1.2471,-1.2523,-1.2546,-1.2584,-1.2642,-1.2653,-1.2711,-1.273,-1.276,-1.2802,-1.2801,-1.284,-1.2855,-1.2897,-1.2908,-1.2969,-1.2979,-1.299,-1.2993,-1.2992,-1.2991,-1.301,-1.3007,-1.2994,-1.2993,-1.2993,-1.2992,0,-1.2543,-1.256,-1.2625,-1.2663,-1.2674,-1.2716,-1.2748,-1.2785,-1.28,-1.2853,-1.2866,-1.2891,-1.294,-1.2957,-1.3016,-1.3024,-1.3096,-1.3092,-1.3084,-1.3085,-1.3127,-1.3124,-1.3252,-1.3271,-1.3161,-1.3162,-1.3163,0,-1.2595,-1.2635,-1.2678,-1.2706,-1.2727,-1.2771,-1.28,-1.2813,-1.2843,-1.2887,-1.2919,-1.2967,-1.3008,-1.3086,-1.311,-1.3156,-1.3156,-1.3198,-1.3163,-1.3162,-1.3161,-1.3159,-1.3165,-1.3206,-1.3207,-1.3208,-1.3208,0,-1.2688,-1.2695,-1.2736,-1.2781,-1.2816,-1.2852,-1.2886,-1.2909,-1.2927,-1.2961,-1.3011,-1.3042,-1.3103,-1.3153,-1.32,-1.3221,-1.3219,-1.3219,-1.3231,-1.3232,-1.3227,-1.3233,-1.3105,-1.3217,-1.3216,-1.3215,-1.3215,-1.3214,-1.2754,-1.279,-1.2826,-1.2873,-1.29,-1.2933,-1.297,-1.299,-1.3032,-1.3083,-1.3087,-1.3142,-1.3178,-1.3241,-1.3265,-1.3309,-1.3297,-1.3315,-1.332,-1.3325,-1.333,-1.3217,-1.3317,-1.3317,-1.3317,-1.3316,-1.3316,0,-1.2849,-1.2872,-1.2915,-1.2964,-1.3001,-1.2994,-1.3032,-1.3064,-1.3113,-1.3146,-1.3186,-1.3244,-1.3292,-1.332,-1.3368,-1.3398,-1.3398,-1.341,-1.341,-1.3416,-1.3335,-1.3321,-1.341,-1.341,-1.341,-1.341,-1.341,-1.341,-1.2904,-1.2966,-1.2976,-1.3052,-1.3075,-1.3129,-1.3152,-1.3182,-1.3209,-1.3275,-1.3315,-1.3332,-1.3364,-1.3415,-1.3459,-1.3466,-1.3485,-1.3499,-1.3505,-1.343,-1.3421,-1.3412,-1.3399,-1.3502,-1.3502,-1.3582,-1.3583,-1.3583]},{"header":{"parameterUnit":"m.s-1","parameterCategory":1,"la1":30.2991,"la2":30.254,"lo1":-89.0895,"lo2":-89.0444,"dy":0.0017,"dx":0.0017,"nx":28,"ny":28,"refTime":"2023-11-03T03:00:00:Z","depth":0,"parameterNumber":3,"parameterNumberName":"V-component_of_WINDS"},"data":[0,0,0,0,0,0,0,0,0,0,0,0,0,0,0,0,0,0,0,0,0,0,0,0,0,0,0,0,0,0,0,0,0,0,0,0,0,0,0,0,0,0,0,0,0,0,0,0,0,0,0,0,0,0,0,0,0,0,-1.9529,-1.9529,0,-1.949,-1.949,-1.9489,-1.9423,-1.9422,-1.9421,-1.942,-1.9381,-1.9381,-1.9381,0,0,0,0,0,0,0,0,0,0,0,0,0,-1.9547,-1.9547,-1.9529,-1.9529,-1.9528,-1.949,-1.949,-1.9489,-1.9424,-1.9422,-1.9421,-1.9419,-1.9381,-1.9381,-1.9381,0,0,0,0,0,0,0,0,0,0,0,0,0,-1.9527,-1.9547,-1.9529,-1.9491,-1.9487,-1.949,-1.949,-1.9489,-1.9424,-1.9422,-1.942,-1.9419,-1.9381,-1.9381,-1.9381,-1.9419,0,0,-1.9381,-1.9381,0,0,0,0,0,0,0,0,-1.9528,-1.9526,-1.9497,-1.9494,-1.9489,-1.946,-1.9482,-1.9465,-1.9424,-1.9448,-1.942,-1.9418,-1.9409,-1.9406,-1.9403,-1.9417,-1.9415,-1.9381,-1.9381,-1.9382,-1.9382,0,0,0,0,0,0,0,-1.953,-1.9528,-1.9514,-1.9497,-1.9492,-1.9476,-1.9471,-1.9478,-1.9439,-1.9446,-1.9441,-1.9437,-1.9406,-1.9403,-1.9402,-1.9415,-1.9381,-1.9381,-1.9382,-1.9382,-1.9456,-1.9458,0,0,0,0,0,0,-1.9537,-1.9529,-1.9515,-1.9513,-1.9505,-1.9477,-1.9471,-1.9471,-1.9439,-1.9432,-1.9439,-1.9434,-1.9404,-1.9401,-1.94,-1.9442,-1.9382,-1.9382,-1.9382,-1.9455,-1.9457,-1.9459,0,0,0,0,0,0,-1.9537,-1.9536,-1.9517,-1.952,-1.9516,-1.9479,-1.9479,-1.9471,-1.9468,-1.9433,-1.9426,-1.9443,-1.9402,-1.94,-1.9414,-1.9439,-1.9382,-1.9382,-1.9452,-1.9455,-1.9458,-1.9526,0,0,0,0,0,0,-1.9538,-1.9537,-1.9551,-1.952,-1.9516,-1.9532,-1.948,-1.9472,-1.9469,-1.9462,-1.9435,-1.9429,-1.94,-1.9414,-1.9414,-1.9438,-1.9382,-1.945,-1.9454,-1.9457,-1.9521,-1.953,-1.9539,0,0,0,0,0,-1.9539,-1.9572,-1.9552,-1.955,-1.9533,-1.9533,-1.9531,-1.9497,-1.9471,-1.9485,-1.9462,-1.943,-1.9437,-1.9416,-1.9416,-1.944,-1.9448,-1.9453,-1.9457,-1.9517,-1.9529,-1.9538,0,0,0,0,0,0,-1.9606,-1.9567,-1.9544,-1.9568,-1.9555,-1.9522,-1.9539,-1.951,-1.9504,-1.9498,-1.9457,-1.9451,-1.9471,-1.9457,-1.9435,-1.9475,-1.9437,-1.9442,-1.9483,-1.9494,-1.9503,-1.9506,-1.9382,0,0,0,0,0,-1.9624,-1.9628,-1.9593,-1.9617,-1.9611,-1.9576,-1.9575,-1.955,-1.9535,-1.9529,-1.9507,-1.9493,-1.9492,-1.9492,-1.9489,-1.9518,-1.9511,-1.9535,-1.9544,-1.9551,-1.9556,-1.9569,-1.9579,-1.9473,-1.9473,-1.9473,0,0,-1.966,-1.9639,-1.9644,-1.963,-1.9617,-1.9621,-1.9572,-1.9579,-1.9582,-1.953,-1.9542,-1.9526,-1.9507,-1.9529,-1.9538,-1.9518,-1.9583,-1.9557,-1.9563,-1.9563,-1.9575,-1.9585,-1.9594,-1.9476,-1.9475,-1.9475,0,0,-1.9729,-1.9714,-1.9732,-1.9719,-1.9699,-1.9675,-1.968,-1.9652,-1.9639,-1.965,-1.9611,-1.9614,-1.9613,-1.9601,-1.9595,-1.9658,-1.9629,-1.9659,-1.9705,-1.9718,-1.9727,-1.9734,-1.9756,-1.9765,-1.9663,-1.9663,-1.9663,0,-1.9777,-1.9783,-1.9745,-1.9755,-1.975,-1.9702,-1.972,-1.9709,-1.969,-1.9687,-1.9665,-1.9662,-1.9646,-1.9665,-1.968,-1.9677,-1.9681,-1.9662,-1.9729,-1.9735,-1.9742,-1.9763,-1.9771,-1.9667,-1.9666,-1.9666,-1.9666,0,-1.9842,-1.9847,-1.9864,-1.9846,-1.9842,-1.9856,-1.9821,-1.9822,-1.9797,-1.9776,-1.9788,-1.9767,-1.9759,-1.9761,-1.9737,-1.9776,-1.9764,-1.9736,-1.9698,-1.9756,-1.9775,-1.9783,-1.9672,-1.9671,-1.967,-1.9669,0,0,-1.9953,-1.9913,-1.992,-1.9911,-1.9885,-1.9888,-1.9899,-1.9891,-1.9892,-1.988,-1.9889,-1.9888,-1.9862,-1.9855,-1.9829,-1.9841,-1.9893,-1.9811,-1.981,-1.9827,-1.9933,-1.9955,-1.9965,-1.9872,-1.9874,-1.9875,-1.9935,0,-2.0017,-2.0034,-2.0001,-2.0026,-2.0029,-1.9983,-1.9993,-1.9978,-1.9958,-1.9958,-1.9936,-1.9936,-1.9902,-1.9897,-1.9907,-1.9884,-1.9913,-1.9879,-1.988,-1.988,-1.9886,-1.9975,-1.9998,-2.0055,-1.9942,-1.9943,-1.9944,0,-2.0094,-2.0085,-2.0111,-2.0082,-2.0082,-2.0092,-2.0081,-2.0081,-2.0063,-2.0048,-2.004,-2.0009,-2.0018,-1.9981,-1.9992,-1.997,-1.9968,-1.9957,-1.9958,-1.9957,-1.9916,-1.9976,-2.0073,-2.0082,-1.9956,-1.9955,-1.9954,0,-2.0172,-2.0166,-2.0181,-2.0174,-2.0142,-2.015,-2.0136,-2.0116,-2.0113,-2.0103,-2.0101,-2.0093,-2.0088,-2.0082,-2.005,-2.0026,-2.0065,-2.0025,-2.0052,-2.0053,-2.0063,-2.0063,-2.0161,-2.0062,-2.0062,-2.0062,-2.0061,0,-2.0246,-2.0264,-2.0215,-2.0225,-2.0243,-2.0203,-2.0222,-2.0204,-2.0187,-2.0191,-2.0151,-2.0156,-2.0113,-2.0113,-2.0088,-2.0101,-2.0099,-2.0087,-2.008,-2.0091,-2.0092,-2.0089,-2.0084,-2.0064,-2.0063,-2.0063,-2.0063,0,-2.0337,-2.0305,-2.0318,-2.0286,-2.0278,-2.0293,-2.0265,-2.0272,-2.0249,-2.0256,-2.0255,-2.0219,-2.0217,-2.0184,-2.0175,-2.0158,-2.0181,-2.0167,-2.0188,-2.0183,-2.0212,-2.021,-2.0312,-2.0323,-2.0217,-2.0218,-2.0218,0,-2.0387,-2.0399,-2.0368,-2.0368,-2.0357,-2.0358,-2.0354,-2.0316,-2.0314,-2.0293,-2.0303,-2.0297,-2.0291,-2.029,-2.0263,-2.0256,-2.0241,-2.0277,-2.0239,-2.025,-2.0241,-2.0241,-2.0242,-2.0285,-2.0286,-2.0288,-2.0288,0,-2.0479,-2.0462,-2.0459,-2.0449,-2.0446,-2.0437,-2.0425,-2.0427,-2.0385,-2.0385,-2.0382,-2.0377,-2.0368,-2.0363,-2.035,-2.0336,-2.0306,-2.03,-2.0306,-2.0317,-2.0329,-2.0323,-2.0209,-2.0298,-2.0297,-2.0297,-2.0296,-2.0296,-2.0551,-2.0559,-2.0539,-2.0536,-2.0523,-2.0512,-2.0517,-2.0495,-2.0492,-2.0481,-2.0458,-2.0459,-2.044,-2.042,-2.0408,-2.0408,-2.0389,-2.0398,-2.04,-2.0403,-2.0409,-2.0329,-2.0406,-2.0405,-2.0405,-2.0405,-2.0405,0,-2.064,-2.0625,-2.0622,-2.0607,-2.0604,-2.0575,-2.056,-2.056,-2.0561,-2.0546,-2.054,-2.0537,-2.0532,-2.0504,-2.0496,-2.0501,-2.0486,-2.05,-2.0499,-2.0496,-2.0426,-2.0422,-2.0512,-2.0512,-2.0512,-2.0511,-2.0511,-2.0511,-2.0687,-2.07,-2.0681,-2.0687,-2.067,-2.0671,-2.0665,-2.0655,-2.0642,-2.0641,-2.0636,-2.0618,-2.0597,-2.0587,-2.058,-2.0572,-2.0571,-2.0589,-2.0577,-2.0512,-2.0501,-2.0491,-2.0487,-2.0589,-2.0589,-2.0647,-2.0647,-2.0648]}]]